N495CX KHOU-KBGR

Flight info

Callsign N495CX
Flight time 3h 22m
Altitude 39000
Route LURIC8 ORRTH CRAMM/N0452F410 Q32 BNA STEWS GEFFS Q71 PSB J49 BGR
Aircraft FA50/M-SDFGHIM1RWXY/H

Departure

Time 2026-04-23 16:16
Airport William P. Hobby Airport (KHOU)

Arrival

Time 2026-04-23 19:38
Airport Bangor International Airport (KBGR)
Time Latitude Longitude Altitude Speed Heading
2026-04-23 16:00 29.64678 -95.27299 50 ft 0 kts 284°
2026-04-23 16:12 29.64679 -95.27306 50 ft 3 kts 283°
2026-04-23 16:12 29.64701 -95.27359 50 ft 10 kts 314°
2026-04-23 16:12 29.64760 -95.27360 50 ft 13 kts 43°
2026-04-23 16:12 29.64848 -95.27262 50 ft 22 kts 45°
2026-04-23 16:13 29.64979 -95.27117 50 ft 30 kts 43°
2026-04-23 16:13 29.65222 -95.26852 50 ft 18 kts 43°
2026-04-23 16:13 29.65301 -95.26771 50 ft 12 kts 17°
2026-04-23 16:14 29.65353 -95.26807 50 ft 7 kts 313°
2026-04-23 16:14 29.65403 -95.26869 50 ft 7 kts 310°
2026-04-23 16:14 29.65401 -95.26887 50 ft 4 kts 238°
2026-04-23 16:14 29.65396 -95.26893 50 ft 0 kts 224°
2026-04-23 16:15 29.65229 -95.27077 50 ft 66 kts 223°
2026-04-23 16:15 29.64749 -95.27614 50 ft 121 kts 220°
2026-04-23 16:15 29.64068 -95.28361 181 ft 142 kts 221°
2026-04-23 16:15 29.63332 -95.29217 482 ft 162 kts 221°
2026-04-23 16:16 29.62482 -95.30127 1056 ft 170 kts 223°
2026-04-23 16:16 29.62261 -95.31420 1555 ft 188 kts 300°
2026-04-23 16:16 29.63371 -95.32210 2001 ft 205 kts 360°
2026-04-23 16:16 29.64759 -95.31909 2687 ft 208 kts 15°
2026-04-23 16:17 29.66204 -95.31457 3197 ft 229 kts 17°
2026-04-23 16:17 29.67795 -95.30902 3797 ft 246 kts 17°
2026-04-23 16:17 29.69472 -95.30287 4399 ft 263 kts 17°
2026-04-23 16:17 29.71213 -95.29660 5252 ft 270 kts 16°
2026-04-23 16:18 29.73103 -95.29278 5952 ft 281 kts 360°
2026-04-23 16:18 29.75035 -95.29222 6844 ft 288 kts
2026-04-23 16:18 29.77048 -95.29034 7856 ft 290 kts
2026-04-23 16:18 29.79003 -95.28848 8967 ft 289 kts
2026-04-23 16:19 29.81018 -95.28661 9999 ft 292 kts
2026-04-23 16:19 29.83018 -95.28475 10827 ft 301 kts
2026-04-23 16:19 29.85258 -95.28266 10925 ft 335 kts
2026-04-23 16:19 29.87561 -95.28050 12028 ft 333 kts
2026-04-23 16:20 29.89848 -95.27836 12961 ft 335 kts
2026-04-23 16:20 29.92171 -95.27619 13788 ft 339 kts
2026-04-23 16:20 29.94526 -95.27399 14652 ft 341 kts
2026-04-23 16:20 29.96862 -95.27181 15440 ft 344 kts
2026-04-23 16:21 29.99244 -95.26958 16207 ft 347 kts
2026-04-23 16:21 30.01647 -95.26733 16951 ft 349 kts
2026-04-23 16:21 30.04084 -95.26504 17662 ft 352 kts
2026-04-23 16:21 30.06507 -95.26262 18338 ft 356 kts
2026-04-23 16:22 30.08927 -95.25522 18978 ft 365 kts 14°
2026-04-23 16:22 30.11191 -95.24074 19575 ft 378 kts 30°
2026-04-23 16:22 30.13327 -95.22304 20161 ft 381 kts 29°
2026-04-23 16:22 30.15491 -95.20569 20695 ft 385 kts 28°
2026-04-23 16:23 30.17685 -95.18816 21249 ft 388 kts 28°
2026-04-23 16:23 30.19909 -95.17038 21778 ft 391 kts 28°
2026-04-23 16:23 30.22138 -95.15254 22276 ft 394 kts 28°
2026-04-23 16:23 30.24389 -95.13452 22759 ft 397 kts 27°
2026-04-23 16:24 30.26682 -95.11616 23229 ft 400 kts 27°
2026-04-23 16:24 30.28965 -95.09786 23682 ft 403 kts 27°
2026-04-23 16:24 30.31295 -95.07918 24132 ft 406 kts 27°
2026-04-23 16:24 30.33618 -95.06054 24561 ft 409 kts 27°
2026-04-23 16:25 30.35935 -95.04194 24968 ft 411 kts 26°
2026-04-23 16:25 30.38285 -95.02306 25365 ft 414 kts 26°
2026-04-23 16:25 30.40651 -95.00427 25767 ft 415 kts 25°
2026-04-23 16:25 30.43064 -94.98573 26148 ft 417 kts 25°
2026-04-23 16:26 30.45492 -94.96716 26530 ft 419 kts 24°
2026-04-23 16:26 30.47936 -94.94846 26882 ft 421 kts 24°
2026-04-23 16:26 30.50369 -94.92984 27208 ft 424 kts 24°
2026-04-23 16:26 30.52816 -94.91109 27565 ft 425 kts 24°
2026-04-23 16:27 30.55276 -94.89224 27764 ft 431 kts 24°
2026-04-23 16:27 30.57820 -94.87277 27657 ft 443 kts 24°
2026-04-23 16:27 30.60386 -94.85300 28071 ft 442 kts 24°
2026-04-23 16:27 30.62954 -94.83327 28373 ft 443 kts 24°
2026-04-23 16:28 30.65511 -94.81361 28601 ft 446 kts 24°
2026-04-23 16:28 30.68126 -94.79349 28904 ft 447 kts 24°
2026-04-23 16:28 30.70728 -94.77346 29156 ft 449 kts 24°
2026-04-23 16:28 30.73321 -94.75349 29384 ft 451 kts 24°
2026-04-23 16:29 30.75948 -94.73323 29627 ft 452 kts 24°
2026-04-23 16:29 30.78558 -94.71310 29862 ft 454 kts 23°
2026-04-23 16:29 30.81194 -94.69275 30078 ft 456 kts 23°
2026-04-23 16:29 30.83807 -94.67256 30287 ft 457 kts 23°
2026-04-23 16:30 30.86466 -94.65201 30499 ft 459 kts 23°
2026-04-23 16:30 30.89106 -94.63159 30696 ft 460 kts 23°
2026-04-23 16:30 30.91775 -94.61095 30844 ft 463 kts 24°
2026-04-23 16:30 30.94487 -94.58994 30998 ft 465 kts 24°
2026-04-23 16:31 30.97163 -94.56920 31149 ft 467 kts 25°
2026-04-23 16:31 30.99856 -94.54831 31324 ft 469 kts 25°
2026-04-23 16:31 31.02593 -94.52709 31503 ft 470 kts 26°
2026-04-23 16:31 31.05293 -94.50616 31624 ft 472 kts 26°
2026-04-23 16:32 31.08030 -94.48491 31778 ft 474 kts 26°
2026-04-23 16:32 31.10818 -94.46325 32009 ft 473 kts 26°
2026-04-23 16:32 31.13529 -94.44219 32156 ft 475 kts 26°
2026-04-23 16:32 31.16293 -94.42072 32296 ft 477 kts 26°
2026-04-23 16:33 31.19031 -94.39938 32469 ft 477 kts 26°
2026-04-23 16:33 31.21807 -94.37775 32648 ft 478 kts 26°
2026-04-23 16:33 31.24564 -94.35623 32757 ft 480 kts 26°
2026-04-23 16:33 31.27335 -94.33460 32865 ft 481 kts 26°
2026-04-23 16:34 31.30081 -94.31312 33267 ft 475 kts 26°
2026-04-23 16:34 31.32817 -94.29174 33536 ft 473 kts 26°
2026-04-23 16:34 31.35571 -94.27021 33680 ft 474 kts 26°
2026-04-23 16:34 31.38283 -94.24898 33897 ft 473 kts 26°
2026-04-23 16:35 31.40998 -94.22771 34099 ft 472 kts 26°
2026-04-23 16:35 31.43756 -94.20609 34255 ft 473 kts 26°
2026-04-23 16:35 31.46463 -94.18485 34467 ft 472 kts 26°
2026-04-23 16:35 31.49196 -94.16341 34650 ft 471 kts 26°
2026-04-23 16:36 31.51927 -94.14195 34797 ft 472 kts 26°
2026-04-23 16:36 31.54615 -94.12081 35052 ft 469 kts 26°
2026-04-23 16:36 31.57326 -94.09949 35184 ft 470 kts 26°
2026-04-23 16:36 31.60039 -94.07813 35366 ft 470 kts 26°
2026-04-23 16:37 31.62741 -94.05685 35578 ft 468 kts 26°
2026-04-23 16:37 31.65437 -94.03559 35721 ft 469 kts 26°
2026-04-23 16:37 31.68116 -94.01446 35908 ft 468 kts 26°
2026-04-23 16:37 31.70837 -93.99297 36078 ft 468 kts 26°
2026-04-23 16:38 31.73545 -93.97158 36211 ft 468 kts 26°
2026-04-23 16:38 31.76224 -93.95016 36380 ft 470 kts 29°
2026-04-23 16:38 31.78646 -93.92426 36501 ft 481 kts 39°
2026-04-23 16:38 31.80846 -93.89431 36641 ft 487 kts 44°
2026-04-23 16:39 31.82913 -93.86307 36794 ft 488 kts 45°
2026-04-23 16:39 31.84982 -93.83155 36913 ft 488 kts 45°
2026-04-23 16:39 31.87071 -93.79974 37058 ft 488 kts 45°
2026-04-23 16:39 31.89145 -93.76816 37207 ft 488 kts 45°
2026-04-23 16:40 31.91199 -93.73683 37321 ft 488 kts 45°
2026-04-23 16:40 31.93288 -93.70495 37458 ft 488 kts 45°
2026-04-23 16:40 31.95357 -93.67336 37561 ft 489 kts 45°
2026-04-23 16:40 31.97415 -93.64191 37699 ft 488 kts 45°
2026-04-23 16:41 31.99479 -93.61033 37848 ft 488 kts 45°
2026-04-23 16:41 32.01584 -93.57812 37928 ft 489 kts 45°
2026-04-23 16:41 32.03632 -93.54672 38069 ft 488 kts 45°
2026-04-23 16:41 32.05710 -93.51485 38180 ft 489 kts 45°
2026-04-23 16:42 32.07764 -93.48333 38293 ft 489 kts 45°
2026-04-23 16:42 32.09831 -93.45157 38418 ft 488 kts 45°
2026-04-23 16:42 32.13971 -93.38791 38684 ft 488 kts 45°
2026-04-23 16:43 32.18088 -93.32449 38853 ft 489 kts 46°
2026-04-23 16:43 32.22220 -93.26071 39037 ft 489 kts 46°
2026-04-23 16:44 32.26323 -93.19728 39210 ft 489 kts 46°
2026-04-23 16:44 32.30445 -93.13346 39408 ft 489 kts 45°
2026-04-23 16:45 32.34540 -93.06997 39604 ft 488 kts 46°
2026-04-23 16:45 32.38652 -93.00608 39766 ft 488 kts 46°
2026-04-23 16:46 32.40702 -92.97418 39903 ft 487 kts 47°
2026-04-23 16:46 32.42736 -92.94251 39983 ft 487 kts 47°
2026-04-23 16:46 32.46825 -92.87878 40178 ft 486 kts 47°
2026-04-23 16:47 32.50901 -92.81511 40339 ft 485 kts 47°
2026-04-23 16:47 32.54981 -92.75131 40473 ft 485 kts 48°
2026-04-23 16:48 32.58815 -92.68553 40554 ft 489 kts 51°
2026-04-23 16:48 32.62592 -92.61906 40723 ft 488 kts 51°
2026-04-23 16:49 32.66387 -92.55223 40818 ft 489 kts 51°
2026-04-23 16:49 32.70163 -92.48560 40959 ft 488 kts 51°
2026-04-23 16:50 32.73953 -92.41858 41064 ft 489 kts 51°
2026-04-23 16:50 32.77734 -92.35162 41067 ft 492 kts 51°
2026-04-23 16:51 32.81560 -92.28374 41065 ft 494 kts 52°
2026-04-23 16:51 32.85394 -92.21558 41077 ft 495 kts 51°
2026-04-23 16:52 32.89217 -92.14750 41089 ft 497 kts 51°
2026-04-23 16:52 32.93035 -92.07940 41087 ft 498 kts 51°
2026-04-23 16:53 32.96867 -92.01090 41091 ft 499 kts 51°
2026-04-23 16:53 33.00707 -91.94214 41089 ft 501 kts 51°
2026-04-23 16:54 33.04559 -91.87303 41074 ft 500 kts 51°
2026-04-23 16:54 33.08394 -91.80411 41071 ft 499 kts 50°
2026-04-23 16:55 33.12204 -91.73550 41078 ft 499 kts 50°
2026-04-23 16:55 33.16027 -91.66655 41077 ft 499 kts 50°
2026-04-23 16:56 33.19859 -91.59731 41074 ft 500 kts 50°
2026-04-23 16:56 33.23672 -91.52824 41074 ft 501 kts 50°
2026-04-23 16:57 33.27486 -91.45907 41072 ft 501 kts 50°
2026-04-23 16:57 33.31298 -91.38977 41073 ft 501 kts 50°
2026-04-23 16:58 33.35152 -91.31960 41058 ft 502 kts 50°
2026-04-23 16:58 33.38946 -91.25038 41059 ft 502 kts 51°
2026-04-23 16:59 33.42758 -91.18069 41063 ft 501 kts 50°
2026-04-23 16:59 33.46573 -91.11083 41064 ft 501 kts 50°
2026-04-23 17:00 33.50367 -91.04120 41064 ft 501 kts 50°
2026-04-23 17:00 33.54169 -90.97130 41063 ft 501 kts 50°
2026-04-23 17:01 33.57944 -90.90177 41064 ft 500 kts 50°
2026-04-23 17:01 33.61724 -90.83204 41062 ft 500 kts 50°
2026-04-23 17:02 33.65517 -90.76189 41058 ft 500 kts 50°
2026-04-23 17:02 33.69286 -90.69209 41060 ft 500 kts 50°
2026-04-23 17:03 33.73063 -90.62198 41056 ft 500 kts 50°
2026-04-23 17:03 33.76820 -90.55210 41059 ft 500 kts 50°
2026-04-23 17:04 33.80587 -90.48190 41059 ft 501 kts 50°
2026-04-23 17:04 33.84330 -90.41204 41064 ft 501 kts 50°
2026-04-23 17:05 33.88098 -90.34156 41081 ft 501 kts 50°
2026-04-23 17:05 33.91861 -90.27104 41077 ft 500 kts 50°
2026-04-23 17:06 33.95609 -90.20067 41081 ft 500 kts 50°
2026-04-23 17:06 33.99332 -90.13062 41080 ft 499 kts 50°
2026-04-23 17:07 34.03070 -90.06016 41079 ft 499 kts 50°
2026-04-23 17:07 34.06804 -89.98962 41073 ft 499 kts 50°
2026-04-23 17:08 34.10534 -89.91902 41082 ft 499 kts 50°
2026-04-23 17:08 34.14241 -89.84875 41090 ft 500 kts 50°
2026-04-23 17:09 34.17979 -89.77773 41091 ft 500 kts 50°
2026-04-23 17:09 34.21683 -89.70721 41096 ft 500 kts 50°
2026-04-23 17:10 34.25407 -89.63617 41096 ft 500 kts 50°
2026-04-23 17:10 34.29108 -89.56544 41108 ft 501 kts 50°
2026-04-23 17:11 34.32823 -89.49430 41115 ft 501 kts 50°
2026-04-23 17:11 34.36524 -89.42328 41116 ft 501 kts 50°
2026-04-23 17:12 34.40231 -89.35199 41121 ft 502 kts 50°
2026-04-23 17:12 34.43941 -89.28052 41106 ft 502 kts 51°
2026-04-23 17:13 34.47627 -89.20937 41112 ft 501 kts 51°
2026-04-23 17:13 34.51334 -89.13766 41119 ft 501 kts 51°
2026-04-23 17:14 34.55003 -89.06655 41121 ft 501 kts 51°
2026-04-23 17:14 34.58684 -88.99506 41121 ft 501 kts 51°
2026-04-23 17:15 34.62373 -88.92330 41118 ft 502 kts 51°
2026-04-23 17:15 34.66533 -88.85692 41123 ft 493 kts 42°
2026-04-23 17:16 34.70950 -88.79396 41112 ft 494 kts 43°
2026-04-23 17:16 34.75388 -88.73027 41113 ft 495 kts 43°
2026-04-23 17:17 34.79836 -88.66635 41109 ft 496 kts 43°
2026-04-23 17:17 34.84269 -88.60250 41111 ft 497 kts 43°
2026-04-23 17:18 34.90968 -88.50581 41110 ft 499 kts 43°
2026-04-23 17:19 34.95425 -88.44132 41111 ft 500 kts 42°
2026-04-23 17:19 34.99862 -88.37701 41103 ft 501 kts 42°
2026-04-23 17:20 35.04355 -88.31176 41076 ft 503 kts 42°
2026-04-23 17:21 35.13308 -88.18140 41091 ft 503 kts 42°
2026-04-23 17:21 35.20050 -88.08290 41094 ft 504 kts 42°
2026-04-23 17:22 35.26779 -87.98431 41092 ft 506 kts 43°
2026-04-23 17:23 35.33495 -87.88563 41098 ft 507 kts 43°
2026-04-23 17:24 35.40255 -87.78601 41102 ft 508 kts 43°
2026-04-23 17:24 35.47031 -87.68588 41111 ft 509 kts 43°
2026-04-23 17:25 35.53775 -87.58593 41115 ft 510 kts 43°
2026-04-23 17:26 35.62796 -87.45177 41113 ft 511 kts 43°
2026-04-23 17:27 35.69572 -87.35065 41115 ft 512 kts 43°
2026-04-23 17:27 35.74101 -87.28288 41103 ft 512 kts 43°
2026-04-23 17:28 35.78596 -87.21550 41105 ft 511 kts 43°
2026-04-23 17:28 35.83084 -87.14811 41097 ft 511 kts 43°
2026-04-23 17:29 35.87583 -87.08040 41108 ft 511 kts 43°
2026-04-23 17:30 35.94295 -86.97914 41119 ft 509 kts 43°
2026-04-23 17:30 36.01002 -86.87766 41117 ft 506 kts 43°
2026-04-23 17:31 36.05431 -86.81048 41271 ft 500 kts 43°
2026-04-23 17:31 36.09806 -86.74399 41407 ft 499 kts 42°
2026-04-23 17:32 36.11966 -86.71113 41552 ft 496 kts 43°
2026-04-23 17:32 36.13929 -86.67533 41567 ft 505 kts 50°
2026-04-23 17:32 36.17712 -86.60255 41648 ft 506 kts 51°
2026-04-23 17:33 36.21336 -86.52822 41694 ft 508 kts 51°
2026-04-23 17:33 36.24982 -86.45325 41880 ft 506 kts 51°
2026-04-23 17:34 36.26752 -86.41676 42174 ft 499 kts 51°
2026-04-23 17:34 36.28551 -86.37967 42402 ft 496 kts 51°
2026-04-23 17:35 36.33854 -86.27010 42531 ft 496 kts 51°
2026-04-23 17:35 36.39155 -86.16020 42648 ft 496 kts 51°
2026-04-23 17:36 36.42696 -86.08659 42754 ft 495 kts 51°
2026-04-23 17:36 36.46218 -86.01324 42770 ft 497 kts 51°
2026-04-23 17:37 36.49723 -85.94004 42848 ft 496 kts 51°
2026-04-23 17:38 36.55011 -85.82934 42971 ft 496 kts 51°
2026-04-23 17:38 36.58522 -85.75562 43035 ft 496 kts 51°
2026-04-23 17:39 36.62015 -85.68212 43084 ft 497 kts 51°
2026-04-23 17:39 36.65517 -85.60829 43181 ft 496 kts 51°
2026-04-23 17:40 36.69024 -85.53418 43272 ft 496 kts 51°
2026-04-23 17:40 36.72489 -85.46078 43306 ft 496 kts 52°
2026-04-23 17:41 36.75989 -85.38649 43336 ft 497 kts 52°
2026-04-23 17:41 36.81224 -85.27508 43374 ft 497 kts 52°
2026-04-23 17:42 36.86456 -85.16333 43394 ft 498 kts 52°
2026-04-23 17:43 36.89934 -85.08887 43393 ft 499 kts 53°
2026-04-23 17:43 36.93422 -85.01397 43413 ft 500 kts 54°
2026-04-23 17:44 36.96893 -84.93929 43422 ft 501 kts 54°
2026-04-23 17:44 37.02120 -84.82648 43635 ft 497 kts 54°
2026-04-23 17:45 37.07296 -84.71443 43708 ft 497 kts 54°
2026-04-23 17:46 37.12484 -84.60175 43828 ft 497 kts 54°
2026-04-23 17:46 37.15922 -84.52683 43862 ft 498 kts 54°
2026-04-23 17:47 37.19369 -84.45156 43771 ft 500 kts 54°
2026-04-23 17:47 37.22825 -84.37593 43563 ft 504 kts 54°
2026-04-23 17:48 37.24555 -84.33801 43454 ft 505 kts 55°
2026-04-23 17:48 37.26311 -84.29947 43315 ft 507 kts 55°
2026-04-23 17:48 37.28060 -84.26103 43194 ft 509 kts 55°
2026-04-23 17:48 37.29813 -84.22247 43075 ft 511 kts 55°
2026-04-23 17:49 37.31565 -84.18386 42946 ft 513 kts 55°
2026-04-23 17:49 37.33345 -84.14462 42833 ft 514 kts 55°
2026-04-23 17:49 37.35099 -84.10589 42713 ft 516 kts 55°
2026-04-23 17:49 37.36889 -84.06633 42590 ft 517 kts 55°
2026-04-23 17:50 37.38654 -84.02723 42487 ft 518 kts 55°
2026-04-23 17:50 37.42205 -83.94851 42232 ft 521 kts 55°
2026-04-23 17:50 37.43994 -83.90876 42107 ft 522 kts 55°
2026-04-23 17:51 37.45777 -83.86915 41987 ft 523 kts 55°
2026-04-23 17:51 37.47573 -83.82912 41873 ft 522 kts 55°
2026-04-23 17:51 37.51124 -83.74989 41626 ft 521 kts 55°
2026-04-23 17:52 37.52883 -83.71058 41502 ft 517 kts 55°
2026-04-23 17:52 37.56391 -83.63203 41270 ft 511 kts 55°
2026-04-23 17:52 37.58125 -83.59315 41167 ft 508 kts 55°
2026-04-23 17:53 37.63245 -83.47803 41185 ft 504 kts 54°
2026-04-23 17:54 37.66680 -83.40058 41178 ft 509 kts 55°
2026-04-23 17:54 37.71882 -83.28290 41136 ft 514 kts 55°
2026-04-23 17:55 37.77087 -83.16474 41137 ft 514 kts 55°
2026-04-23 17:56 37.80551 -83.08582 41148 ft 514 kts 55°
2026-04-23 17:56 37.85738 -82.96742 41132 ft 515 kts 56°
2026-04-23 17:57 37.89502 -82.89117 41144 ft 513 kts 51°
2026-04-23 17:58 37.95684 -82.78019 41139 ft 518 kts 54°
2026-04-23 17:58 37.99825 -82.70531 41147 ft 523 kts 54°
2026-04-23 17:59 38.04033 -82.62907 41131 ft 529 kts 55°
2026-04-23 17:59 38.08226 -82.55291 41128 ft 533 kts 54°
2026-04-23 18:00 38.12487 -82.47536 41107 ft 536 kts 54°
2026-04-23 18:00 38.16726 -82.39799 41116 ft 538 kts 55°
2026-04-23 18:01 38.21005 -82.31979 41103 ft 540 kts 56°
2026-04-23 18:01 38.25280 -82.24146 41106 ft 541 kts 55°
2026-04-23 18:02 38.29554 -82.16289 41107 ft 541 kts 55°
2026-04-23 18:02 38.33858 -82.08364 41107 ft 542 kts 55°
2026-04-23 18:03 38.38127 -82.00481 41104 ft 542 kts 55°
2026-04-23 18:03 38.42387 -81.92599 41108 ft 543 kts 56°
2026-04-23 18:04 38.46672 -81.84644 41110 ft 543 kts 55°
2026-04-23 18:04 38.50908 -81.76769 41112 ft 543 kts 55°
2026-04-23 18:05 38.55179 -81.68808 41104 ft 543 kts 56°
2026-04-23 18:05 38.59444 -81.60834 41118 ft 543 kts 55°
2026-04-23 18:06 38.63670 -81.52917 41118 ft 543 kts 55°
2026-04-23 18:06 38.67924 -81.44925 41112 ft 544 kts 55°
2026-04-23 18:07 38.72182 -81.36913 41117 ft 544 kts 55°
2026-04-23 18:07 38.76439 -81.28875 41099 ft 544 kts 56°
2026-04-23 18:08 38.80651 -81.20901 41095 ft 544 kts 56°
2026-04-23 18:08 38.84871 -81.12904 41102 ft 543 kts 56°
2026-04-23 18:09 38.89095 -81.04870 41093 ft 543 kts 57°
2026-04-23 18:09 38.93313 -80.96833 41088 ft 544 kts 58°
2026-04-23 18:10 38.97532 -80.88773 41105 ft 545 kts 58°
2026-04-23 18:10 39.01924 -80.80872 41106 ft 549 kts 52°
2026-04-23 18:11 39.06928 -80.73434 41098 ft 551 kts 50°
2026-04-23 18:11 39.12036 -80.66095 41082 ft 552 kts 50°
2026-04-23 18:12 39.17115 -80.58790 41106 ft 551 kts 51°
2026-04-23 18:12 39.22208 -80.51427 41101 ft 552 kts 50°
2026-04-23 18:13 39.27324 -80.44023 41091 ft 552 kts 49°
2026-04-23 18:13 39.32431 -80.36619 41096 ft 552 kts 50°
2026-04-23 18:14 39.37510 -80.29227 41078 ft 552 kts 50°
2026-04-23 18:14 39.42594 -80.21824 41082 ft 552 kts 50°
2026-04-23 18:15 39.47675 -80.14403 41091 ft 551 kts 50°
2026-04-23 18:15 39.52737 -80.06988 41089 ft 551 kts 51°
2026-04-23 18:16 39.57778 -79.99594 41104 ft 551 kts 52°
2026-04-23 18:16 39.62859 -79.92120 41091 ft 551 kts 51°
2026-04-23 18:17 39.70429 -79.80961 41114 ft 551 kts 51°
2026-04-23 18:17 39.75484 -79.73483 41109 ft 552 kts 51°
2026-04-23 18:18 39.80541 -79.65979 41089 ft 553 kts 50°
2026-04-23 18:18 39.85594 -79.58469 41089 ft 553 kts 51°
2026-04-23 18:19 39.90641 -79.50949 41081 ft 553 kts 52°
2026-04-23 18:19 39.95704 -79.43387 41071 ft 553 kts 51°
2026-04-23 18:20 40.00724 -79.35865 41085 ft 553 kts 51°
2026-04-23 18:20 40.05750 -79.28324 41095 ft 552 kts 51°
2026-04-23 18:21 40.10787 -79.20750 41091 ft 552 kts 51°
2026-04-23 18:21 40.15828 -79.13199 41074 ft 552 kts 52°
2026-04-23 18:22 40.20903 -79.05705 41089 ft 551 kts 52°
2026-04-23 18:22 40.25972 -78.98199 41075 ft 550 kts 53°
2026-04-23 18:23 40.33524 -78.86978 41071 ft 549 kts 53°
2026-04-23 18:24 40.41078 -78.75718 41072 ft 549 kts 53°
2026-04-23 18:25 40.48597 -78.64468 41071 ft 548 kts 53°
2026-04-23 18:25 40.53613 -78.56937 41065 ft 549 kts 53°
2026-04-23 18:26 40.58613 -78.49415 41058 ft 549 kts 53°
2026-04-23 18:26 40.63629 -78.41849 41061 ft 549 kts 53°
2026-04-23 18:27 40.68622 -78.34300 41058 ft 549 kts 54°
2026-04-23 18:27 40.73630 -78.26709 41051 ft 549 kts 54°
2026-04-23 18:28 40.78612 -78.19138 41045 ft 549 kts 54°
2026-04-23 18:28 40.83602 -78.11537 41041 ft 549 kts 54°
2026-04-23 18:29 40.88556 -78.03970 41046 ft 549 kts 54°
2026-04-23 18:29 40.93100 -77.95961 41048 ft 539 kts 64°
2026-04-23 18:30 40.96895 -77.87485 41049 ft 539 kts 66°
2026-04-23 18:30 41.00691 -77.78966 41051 ft 539 kts 66°
2026-04-23 18:31 41.04494 -77.70403 41048 ft 540 kts 66°
2026-04-23 18:31 41.08280 -77.61855 41044 ft 541 kts 66°
2026-04-23 18:32 41.12068 -77.53283 41022 ft 541 kts 67°
2026-04-23 18:32 41.15854 -77.44688 41026 ft 540 kts 67°
2026-04-23 18:33 41.19631 -77.36089 41021 ft 540 kts 67°
2026-04-23 18:33 41.23396 -77.27494 41011 ft 540 kts 68°
2026-04-23 18:34 41.27154 -77.18889 41010 ft 539 kts 68°
2026-04-23 18:34 41.30893 -77.10304 41014 ft 539 kts 68°
2026-04-23 18:35 41.34634 -77.01691 41014 ft 538 kts 68°
2026-04-23 18:35 41.38367 -76.93069 41015 ft 538 kts 68°
2026-04-23 18:36 41.42100 -76.84427 41019 ft 538 kts 68°
2026-04-23 18:36 41.45810 -76.75808 41019 ft 537 kts 68°
2026-04-23 18:37 41.49498 -76.67218 41020 ft 536 kts 68°
2026-04-23 18:37 41.53190 -76.58591 41021 ft 536 kts 68°
2026-04-23 18:38 41.56859 -76.49995 41025 ft 536 kts 68°
2026-04-23 18:38 41.60535 -76.41357 41037 ft 535 kts 68°
2026-04-23 18:39 41.64194 -76.32732 41049 ft 535 kts 68°
2026-04-23 18:39 41.67858 -76.24071 41055 ft 535 kts 69°
2026-04-23 18:40 41.71490 -76.15462 41062 ft 535 kts 68°
2026-04-23 18:40 41.75125 -76.06819 41067 ft 535 kts 69°
2026-04-23 18:41 41.78752 -75.98170 41065 ft 535 kts 69°
2026-04-23 18:41 41.82390 -75.89468 41061 ft 535 kts 68°
2026-04-23 18:42 41.86012 -75.80781 41064 ft 535 kts 69°
2026-04-23 18:42 41.89626 -75.72085 41070 ft 535 kts 69°
2026-04-23 18:43 41.93225 -75.63402 41075 ft 535 kts 69°
2026-04-23 18:43 41.96838 -75.54659 41070 ft 536 kts 68°
2026-04-23 18:44 42.00435 -75.45931 41063 ft 536 kts 69°
2026-04-23 18:44 42.04042 -75.37150 41052 ft 536 kts 69°
2026-04-23 18:45 42.07755 -75.28485 41048 ft 540 kts 66°
2026-04-23 18:45 42.11717 -75.19937 41016 ft 539 kts 66°
2026-04-23 18:46 42.15649 -75.11415 41023 ft 537 kts 66°
2026-04-23 18:46 42.19586 -75.02856 41025 ft 536 kts 65°
2026-04-23 18:47 42.23484 -74.94357 41027 ft 535 kts 65°
2026-04-23 18:47 42.27399 -74.85796 41024 ft 533 kts 65°
2026-04-23 18:48 42.31273 -74.77304 41026 ft 532 kts 65°
2026-04-23 18:48 42.35136 -74.68810 41028 ft 532 kts 65°
2026-04-23 18:49 42.38997 -74.60294 41022 ft 531 kts 65°
2026-04-23 18:49 42.42844 -74.51787 41003 ft 531 kts 65°
2026-04-23 18:50 42.46055 -74.44668 40991 ft 532 kts 65°
2026-04-23 18:50 42.50547 -74.34678 40982 ft 532 kts 66°
2026-04-23 18:51 42.54361 -74.26171 40980 ft 531 kts 66°
2026-04-23 18:51 42.58144 -74.17637 40982 ft 530 kts 66°
2026-04-23 18:52 42.61936 -74.09021 40983 ft 530 kts 66°
2026-04-23 18:52 42.65694 -74.00458 40984 ft 530 kts 66°
2026-04-23 18:53 42.69450 -73.91876 40985 ft 530 kts 66°
2026-04-23 18:53 42.73197 -73.83289 40988 ft 530 kts 66°
2026-04-23 18:54 42.76949 -73.74666 40987 ft 531 kts 66°
2026-04-23 18:54 42.80707 -73.66001 40970 ft 533 kts 65°
2026-04-23 18:55 42.84462 -73.57320 40969 ft 534 kts 65°
2026-04-23 18:55 42.88222 -73.48600 40968 ft 536 kts 65°
2026-04-23 18:56 42.91334 -73.41367 40965 ft 537 kts 65°
2026-04-23 18:56 42.95750 -73.31068 40963 ft 538 kts 67°
2026-04-23 18:57 42.99496 -73.22303 40964 ft 538 kts 67°
2026-04-23 18:57 43.03261 -73.13468 40968 ft 538 kts 68°
2026-04-23 18:58 43.07006 -73.04652 40967 ft 536 kts 68°
2026-04-23 18:58 43.10702 -72.95926 40960 ft 533 kts 68°
2026-04-23 18:59 43.14394 -72.87183 40946 ft 529 kts 68°
2026-04-23 18:59 43.18053 -72.78489 40942 ft 527 kts 68°
2026-04-23 19:00 43.21693 -72.69818 40937 ft 525 kts 68°
2026-04-23 19:00 43.25296 -72.61209 40940 ft 523 kts 68°
2026-04-23 19:01 43.28921 -72.52520 40940 ft 523 kts 68°
2026-04-23 19:01 43.32495 -72.43928 40943 ft 522 kts 68°
2026-04-23 19:02 43.36098 -72.35239 40938 ft 522 kts 68°
2026-04-23 19:02 43.39684 -72.26569 40934 ft 522 kts 69°
2026-04-23 19:03 43.43242 -72.17936 40933 ft 522 kts 69°
2026-04-23 19:03 43.46792 -72.09301 40935 ft 521 kts 69°
2026-04-23 19:04 43.50346 -72.00628 40935 ft 521 kts 69°
2026-04-23 19:04 43.53904 -71.91918 40930 ft 521 kts 69°
2026-04-23 19:05 43.57446 -71.83221 40920 ft 522 kts 69°
2026-04-23 19:05 43.60992 -71.74489 40913 ft 522 kts 69°
2026-04-23 19:06 43.64502 -71.65818 40911 ft 521 kts 69°
2026-04-23 19:06 43.68035 -71.57065 40913 ft 522 kts 69°
2026-04-23 19:07 43.71484 -71.48508 40650 ft 500 kts 69°
2026-04-23 19:07 43.73163 -71.44317 39733 ft 501 kts 70°
2026-04-23 19:07 43.74854 -71.40090 38745 ft 503 kts 69°
2026-04-23 19:07 43.76533 -71.35899 37848 ft 502 kts 69°
2026-04-23 19:08 43.78212 -71.31699 36906 ft 502 kts 70°
2026-04-23 19:08 43.79895 -71.27483 35973 ft 501 kts 70°
2026-04-23 19:08 43.81570 -71.23278 34696 ft 508 kts 70°
2026-04-23 19:08 43.83270 -71.18994 33088 ft 520 kts 70°
2026-04-23 19:09 43.85009 -71.14623 31877 ft 520 kts 69°
2026-04-23 19:09 43.86745 -71.10253 30707 ft 519 kts 69°
2026-04-23 19:09 43.88468 -71.05899 29342 ft 521 kts 69°
2026-04-23 19:09 43.90191 -71.01542 27937 ft 522 kts 68°
2026-04-23 19:10 43.91934 -70.97129 26562 ft 520 kts 68°
2026-04-23 19:10 43.93634 -70.92816 25092 ft 519 kts 67°
2026-04-23 19:10 43.95367 -70.88416 23428 ft 520 kts 67°
2026-04-23 19:10 43.97066 -70.84091 21948 ft 514 kts 66°
2026-04-23 19:11 43.98743 -70.79828 20784 ft 502 kts 66°
2026-04-23 19:11 44.00378 -70.75651 19510 ft 493 kts 66°
2026-04-23 19:11 44.02010 -70.71484 18203 ft 485 kts 66°
2026-04-23 19:11 44.03588 -70.67442 16959 ft 475 kts 66°
2026-04-23 19:12 44.05127 -70.63499 16079 ft 466 kts 66°
2026-04-23 19:12 44.06673 -70.59527 15337 ft 465 kts 65°
2026-04-23 19:12 44.08216 -70.55564 14661 ft 459 kts 65°
2026-04-23 19:12 44.09707 -70.51726 13932 ft 455 kts 65°
2026-04-23 19:13 44.11206 -70.47862 13195 ft 450 kts 65°
2026-04-23 19:13 44.12662 -70.44104 12457 ft 446 kts 65°
2026-04-23 19:13 44.14133 -70.40304 11717 ft 441 kts 65°
2026-04-23 19:13 44.15577 -70.36565 11021 ft 430 kts 64°
2026-04-23 19:14 44.16850 -70.33271 10743 ft 404 kts 65°
2026-04-23 19:14 44.18092 -70.30053 10474 ft 381 kts 65°
2026-04-23 19:14 44.19303 -70.26907 10207 ft 361 kts 65°
2026-04-23 19:14 44.20447 -70.23933 10146 ft 337 kts 65°
2026-04-23 19:15 44.21521 -70.21139 10072 ft 318 kts 65°
2026-04-23 19:15 44.22546 -70.18462 9633 ft 314 kts 64°
2026-04-23 19:15 44.23577 -70.15768 9102 ft 314 kts 64°
2026-04-23 19:15 44.24601 -70.13094 8642 ft 311 kts 63°
2026-04-23 19:16 44.25618 -70.10438 8163 ft 309 kts 63°
2026-04-23 19:16 44.26620 -70.07816 7718 ft 306 kts 62°
2026-04-23 19:16 44.27619 -70.05203 7244 ft 304 kts 62°
2026-04-23 19:17 44.29566 -70.00101 6399 ft 297 kts 61°
2026-04-23 19:17 44.30539 -69.97544 5990 ft 293 kts 60°
2026-04-23 19:17 44.31478 -69.95079 5491 ft 294 kts 59°
2026-04-23 19:17 44.32425 -69.92587 5145 ft 287 kts 59°
2026-04-23 19:18 44.33354 -69.90145 4727 ft 284 kts 59°
2026-04-23 19:18 44.34280 -69.87704 4296 ft 282 kts 59°
2026-04-23 19:18 44.35197 -69.85286 4028 ft 276 kts 59°
2026-04-23 19:18 44.36096 -69.82916 3789 ft 280 kts 58°
2026-04-23 19:19 44.37946 -69.78027 3308 ft 279 kts 58°
2026-04-23 19:19 44.38829 -69.75691 3056 ft 269 kts 59°
2026-04-23 19:20 44.40471 -69.71336 2997 ft 243 kts 58°
2026-04-23 19:20 44.41264 -69.69238 3032 ft 248 kts 58°
2026-04-23 19:20 44.42081 -69.67078 3019 ft 255 kts 58°
2026-04-23 19:20 44.42918 -69.64854 3017 ft 262 kts 58°
2026-04-23 19:21 44.43777 -69.62573 3015 ft 267 kts 58°
2026-04-23 19:21 44.45528 -69.57909 3014 ft 272 kts 58°
2026-04-23 19:21 44.46408 -69.55564 3004 ft 275 kts 58°
2026-04-23 19:22 44.47215 -69.53104 2999 ft 280 kts 73°
2026-04-23 19:22 44.47624 -69.50443 3004 ft 281 kts 76°
2026-04-23 19:22 44.48222 -69.45007 2998 ft 283 kts 80°
2026-04-23 19:23 44.48472 -69.42269 3001 ft 283 kts 80°
2026-04-23 19:23 44.48711 -69.39549 2993 ft 283 kts 81°
2026-04-23 19:23 44.48951 -69.36802 2999 ft 283 kts 81°
2026-04-23 19:24 44.49422 -69.31333 2995 ft 281 kts 82°
2026-04-23 19:24 44.49654 -69.28627 2994 ft 279 kts 81°
2026-04-23 19:24 44.50113 -69.23262 2997 ft 277 kts 82°
2026-04-23 19:25 44.50567 -69.17905 2990 ft 276 kts 82°
2026-04-23 19:25 44.51018 -69.12566 2989 ft 274 kts 82°
2026-04-23 19:26 44.51461 -69.07278 2991 ft 273 kts 81°
2026-04-23 19:26 44.51681 -69.04644 2997 ft 273 kts 81°
2026-04-23 19:27 44.52122 -68.99351 2994 ft 272 kts 81°
2026-04-23 19:27 44.52774 -68.91446 3000 ft 271 kts 80°
2026-04-23 19:28 44.53204 -68.86205 3004 ft 271 kts 80°
2026-04-23 19:28 44.53633 -68.80955 2995 ft 270 kts 79°
2026-04-23 19:29 44.53845 -68.78352 2997 ft 270 kts 80°
2026-04-23 19:29 44.54268 -68.73122 2995 ft 269 kts 80°
2026-04-23 19:30 44.55067 -68.68076 3004 ft 262 kts 59°
2026-04-23 19:30 44.56098 -68.66030 2999 ft 256 kts 42°
2026-04-23 19:30 44.58628 -68.62546 2993 ft 255 kts 39°
2026-04-23 19:31 44.59896 -68.60812 2990 ft 246 kts 39°
2026-04-23 19:31 44.61141 -68.59363 2940 ft 223 kts 18°
2026-04-23 19:31 44.62589 -68.59184 2737 ft 202 kts 344°
2026-04-23 19:31 44.63919 -68.59666 2492 ft 196 kts 338°
2026-04-23 19:32 44.65093 -68.60535 2296 ft 187 kts 321°
2026-04-23 19:32 44.66074 -68.61735 2297 ft 186 kts 315°
2026-04-23 19:32 44.66990 -68.63010 2303 ft 186 kts 314°
2026-04-23 19:32 44.67910 -68.64326 2299 ft 186 kts 314°
2026-04-23 19:33 44.68806 -68.65610 2299 ft 185 kts 313°
2026-04-23 19:33 44.69712 -68.66911 2297 ft 185 kts 314°
2026-04-23 19:33 44.71490 -68.69466 2289 ft 174 kts 314°
2026-04-23 19:34 44.72228 -68.70528 2355 ft 122 kts 313°
2026-04-23 19:34 44.72753 -68.71283 2116 ft 99 kts 313°
2026-04-23 19:34 44.73717 -68.72740 1839 ft 104 kts 313°
2026-04-23 19:35 44.74221 -68.73493 1726 ft 108 kts 315°
2026-04-23 19:35 44.74758 -68.74253 1559 ft 108 kts 315°
2026-04-23 19:35 44.75285 -68.74985 1408 ft 106 kts 317°
2026-04-23 19:35 44.75810 -68.75714 1250 ft 107 kts 316°
2026-04-23 19:36 44.76319 -68.76464 1141 ft 106 kts 314°
2026-04-23 19:36 44.76839 -68.77222 999 ft 108 kts 317°
2026-04-23 19:36 44.77374 -68.77960 842 ft 109 kts 317°
2026-04-23 19:36 44.77905 -68.78723 706 ft 106 kts 317°
2026-04-23 19:37 44.78421 -68.79470 551 ft 106 kts 317°
2026-04-23 19:37 44.78928 -68.80209 414 ft 104 kts 319°
2026-04-23 19:37 44.79443 -68.80939 256 ft 105 kts 317°
2026-04-23 19:37 44.79933 -68.81649 167 ft 95 kts 319°
2026-04-23 19:38 44.80330 -68.82200 159 ft 67 kts 316°
2026-04-23 19:38 44.80508 -68.82471 164 ft 10 kts 314°
2026-04-23 19:38 44.80546 -68.82524 165 ft 6 kts 319°
2026-04-23 19:38 44.80625 -68.82527 165 ft 18 kts 42°
2026-04-23 19:39 44.80743 -68.82356 163 ft 23 kts 48°
2026-04-23 19:39 44.80705 -68.82176 159 ft 28 kts 134°
2026-04-23 19:39 44.80535 -68.81930 154 ft 41 kts 134°
2026-04-23 19:39 44.80328 -68.81632 151 ft 23 kts 135°
2026-04-23 19:40 44.80337 -68.81531 151 ft 10 kts 47°
2026-04-23 19:40 44.80333 -68.81418 151 ft 17 kts 102°
2026-04-23 19:40 44.80329 -68.81235 153 ft 9 kts 91°
2026-04-23 19:40 44.80349 -68.81219 153 ft 3 kts 335°
2026-04-23 19:41 44.80349 -68.81220 153 ft 0 kts 335°